Change the Weather History Date:

Wednesday, October 3, 2012

  Actual Average Record
Temperature  
Mean Temperature 60 °F -  
Max Temperature 62 °F 62 °F 80 °F (2000)
Min Temperature 59 °F 34 °F 28 °F (1996)
Degree Days  
Heating Degree Days 4    
Growing Degree Days 10 (Base 50)    
Moisture  
Dew Point 58 °F    
Average Humidity 93    
Maximum Humidity 100    
Minimum Humidity 88    
Precipitation  
Precipitation 0.39 in - - ()
Sea Level Pressure  
Sea Level Pressure 30.14 in    
Wind  
Wind Speed 1 mph (NE)    
Max Wind Speed 5 mph    
Max Gust Speed -    
Visibility 7 miles    
Events Rain    
Averages and records for this station are not official NWS values.
T = Trace of Precipitation, MM = Missing Value Source: NWS Daily Summary

Daily Weather History Graph

Daily Weather History Graph

Search for Another Location

Airport or City:

Trip Planner

Search our weather history database for the weather conditions in past years. The results will help you decide how hot, cold, wet, or windy it might be!

Date:

Astronomy

Oct. 03, 2012 Rise Set
Actual Time 6:44 AM EDT 6:20 PM EDT
Civil Twilight 6:15 AM EDT 6:48 PM EDT
Nautical Twilight 5:42 AM EDT 7:22 PM EDT
Astronomical Twilight 5:08 AM EDT 7:56 PM EDT
Moon 8:01 PM EDT (10/3) 10:13 AM EDT (10/3)
Length of Visible Light 12h 33m
Length of Day
11h 35m
Waning Gibbous, 89% of the Moon is Illuminated
Oct 3
Waning Gibbous
Oct 8
Last Quarter
Oct 15
New
Oct 21
First Quarter
Oct 29
Full

Hourly Weather History & Observations

Time (EDT) Temp. Dew Point Humidity Pressure Visibility Wind Dir Wind Speed Gust Speed Precip Events Conditions
12:54 AM 59.0 °F 57.0 °F 93% 30.06 in 10.0 mi Calm Calm - N/A   Overcast
1:54 AM 60.1 °F 57.0 °F 90% 30.06 in 10.0 mi Calm Calm - N/A   Overcast
2:13 AM 60.8 °F 57.2 °F 88% 30.06 in 10.0 mi Calm Calm - N/A   Overcast
2:54 AM 59.0 °F 57.0 °F 93% 30.06 in 10.0 mi Calm Calm - N/A   Overcast
3:54 AM 59.0 °F 57.9 °F 96% 30.07 in 10.0 mi Calm Calm - N/A   Overcast
4:54 AM 59.0 °F 57.9 °F 96% 30.08 in 10.0 mi Calm Calm - N/A   Overcast
5:54 AM 59.0 °F 57.9 °F 96% 30.10 in 10.0 mi Calm Calm - N/A   Overcast
6:54 AM 59.0 °F 57.9 °F 96% 30.11 in 10.0 mi Calm Calm - 0.00 in Rain Light Rain
7:20 AM 60.8 °F 57.2 °F 88% 30.11 in 10.0 mi Calm Calm - 0.00 in   Overcast
7:54 AM 61.0 °F 57.9 °F 90% 30.13 in 10.0 mi Calm Calm - 0.00 in   Overcast
8:54 AM 60.1 °F 59.0 °F 96% 30.15 in 10.0 mi Calm Calm - 0.02 in Rain Light Rain
9:54 AM 62.1 °F 59.0 °F 90% 30.15 in 10.0 mi Calm Calm - 0.00 in   Overcast
10:45 AM 60.8 °F 60.8 °F 100% 30.14 in 1.8 mi Variable 4.6 mph - 0.07 in Rain Heavy Rain
10:54 AM 61.0 °F 59.0 °F 93% 30.17 in 2.5 mi Calm Calm - 0.09 in Rain Rain
10:56 AM 60.8 °F 59.0 °F 94% 30.16 in 3.0 mi Calm Calm - 0.00 in Rain Rain
11:05 AM 60.8 °F 59.0 °F 94% 30.16 in 2.5 mi NNW 4.6 mph - 0.03 in Rain Rain
11:25 AM 60.8 °F 57.2 °F 88% 30.16 in 3.0 mi North 4.6 mph - 0.10 in Rain Rain
11:33 AM 60.8 °F 59.0 °F 94% 30.16 in 2.0 mi Calm Calm - 0.13 in Rain Rain
11:54 AM 60.1 °F 57.9 °F 93% 30.16 in 2.5 mi Variable 4.6 mph - 0.21 in Rain Rain
11:58 AM 60.8 °F 57.2 °F 88% 30.15 in 3.0 mi East 3.5 mph - 0.01 in Rain Rain
12:54 PM 60.1 °F 57.9 °F 93% 30.15 in 8.0 mi Calm Calm - 0.02 in Rain Light Rain
1:02 PM 59.0 °F 57.2 °F 94% 30.15 in 3.0 mi ESE 3.5 mph - 0.02 in Rain Rain
1:09 PM 59.0 °F 57.2 °F 94% 30.15 in 3.0 mi Calm Calm - 0.03 in Rain Light Rain
1:19 PM 60.8 °F 57.2 °F 88% 30.14 in 7.0 mi Calm Calm - 0.03 in Rain Light Rain
1:36 PM 60.8 °F 57.2 °F 88% 30.14 in 7.0 mi Calm Calm - 0.03 in   Overcast
1:45 PM 60.8 °F 57.2 °F 88% 30.14 in 4.0 mi ENE 3.5 mph - 0.03 in Rain Light Rain
1:54 PM 59.0 °F 55.9 °F 90% 30.14 in 6.0 mi NNE 3.5 mph - 0.03 in Rain Light Rain
2:14 PM 60.8 °F 57.2 °F 88% 30.14 in 7.0 mi Calm Calm - 0.01 in Rain Light Rain
2:54 PM 60.1 °F 57.9 °F 93% 30.14 in 10.0 mi Calm Calm - 0.02 in   Overcast
3:17 PM 60.8 °F 57.2 °F 88% 30.14 in 10.0 mi Calm Calm - N/A   Overcast
4:54 PM 60.1 °F 57.9 °F 93% 30.15 in 10.0 mi Calm Calm - N/A   Overcast
5:54 PM 60.1 °F 57.9 °F 93% 30.16 in 10.0 mi Calm Calm - 0.00 in   Overcast
6:54 PM 59.0 °F 57.9 °F 96% 30.17 in 7.0 mi Calm Calm - N/A   Overcast
7:43 PM 59.0 °F 57.2 °F 94% 30.16 in 5.0 mi Calm Calm - N/A   Overcast
7:54 PM 59.0 °F 57.9 °F 96% 30.17 in 4.0 mi Calm Calm - N/A   Overcast
9:54 PM 59.0 °F 57.9 °F 96% 30.19 in 10.0 mi Calm Calm - N/A   Overcast
10:54 PM 59.0 °F 57.9 °F 96% 30.19 in 10.0 mi Calm Calm - N/A   Overcast
11:54 PM 59.0 °F 57.0 °F 93% 30.20 in 10.0 mi Calm Calm - N/A   Overcast